This is the latest recevied weather packets stored in our database for station/object YO6IKB-10. If no packets are shown the sender has not sent any weather packets the latest 10 day(s).
| Time | Temp. | Humidity | Pressure | Rain* | Wind** | Luminosity | Snow |
|---|---|---|---|---|---|---|---|
| 1777904794 | 23.33° C | 40% | 1011.1 hPa | 0 mm | - | - | - |
| 1777904494 | 23.33° C | 40% | 1011.1 hPa | 0 mm | - | - | - |
| 1777904194 | 23.33° C | 40% | 1011.1 hPa | 0 mm | - | - | - |
| 1777903893 | 23.33° C | 40% | 1011.4 hPa | 0 mm | - | - | - |
| 1777903593 | 23.33° C | 41% | 1011.4 hPa | 0 mm | - | - | - |
| 1777903293 | 23.33° C | 41% | 1011.4 hPa | 0 mm | - | - | - |
| 1777902992 | 22.78° C | 41% | 1011.5 hPa | 0 mm | - | - | - |
| 1777902692 | 23.33° C | 41% | 1011.6 hPa | 0 mm | - | - | - |
| 1777902392 | 23.33° C | 40% | 1011.7 hPa | 0 mm | - | - | - |
| 1777902092 | 23.33° C | 40% | 1011.6 hPa | 0 mm | - | - | - |
| 1777901791 | 23.33° C | 40% | 1011.6 hPa | 0 mm | - | - | - |
| 1777901491 | 23.33° C | 40% | 1011.7 hPa | 0 mm | - | - | - |
| 1777901191 | 23.33° C | 40% | 1011.7 hPa | 0 mm | - | - | - |
| 1777900890 | 23.89° C | 39% | 1011.6 hPa | 0 mm | - | - | - |
| 1777900590 | 24.44° C | 39% | 1011.7 hPa | 0 mm | - | - | - |
| 1777900290 | 24.44° C | 39% | 1011.8 hPa | 0 mm | - | - | - |
| 1777899990 | 24.44° C | 40% | 1011.9 hPa | 0 mm | - | - | - |
| 1777899690 | 24.44° C | 40% | 1012 hPa | 0 mm | - | - | - |
| 1777899389 | 23.89° C | 40% | 1011.9 hPa | 0 mm | - | - | - |
| 1777899089 | 23.89° C | 41% | 1012.1 hPa | 0 mm | - | - | - |
| 1777898788 | 23.89° C | 40% | 1012.1 hPa | 0 mm | - | - | - |
| 1777898488 | 23.33° C | 41% | 1012.1 hPa | 0 mm | - | - | - |
| 1777898188 | 23.33° C | 40% | 1012.2 hPa | 0 mm | - | - | - |
| 1777897888 | 23.33° C | 40% | 1012.3 hPa | 0 mm | - | - | - |
| 1777897587 | 23.89° C | 40% | 1012.3 hPa | 0 mm | - | - | - |
* Rain latest hour (hover to see other rain measurements)
** Current wind speed in m/s (hover to see current wind gust speed)